This demonstration page uses our WeatherBlox Daily Observations layout. Learn more.

Hourly Observations for August 15, 2015

Temp ( °F °C ) Dew Point ( °F °C ) Humidity (%) Winds ( mph kmh ) Pressure ( in mb ) Visibility ( mi km ) Precip ( " mm )
12:15 am 00:15 Clear 70 21.2 65 18.1 83 83 SE 7 11 30.03 1017 10 16.0934 0 0
12:35 am 00:35 Clear 69 20.8 64 18 84 84 SSE 7 11 30.03 1017 10 16.0934 0 0
12:55 am 00:55 Clear 69 20.6 64 17.8 84 84 SSE 7 11 30.03 1017 10 16.0934 0 0
1:15 am 01:15 Clear 69 20.6 64 17.6 83 83 SE 7 11 30.03 1017 10 16.0934 0 0
1:35 am 01:35 Clear 68 20.1 63 17.2 83 83 SSE 7 11 30.06 1018 10 16.0934 0 0
1:55 am 01:55 Clear 68 20.1 63 17 82 82 SSE 6 9 30.06 1018 10 16.0934 0 0
2:15 am 02:15 Clear 67 19.7 62 16.8 83 83 SSE 7 11 30.06 1018 10 16.0934 0 0
2:35 am 02:35 Clear 67 19.6 62 16.6 83 83 SSE 6 9 30.06 1018 10 16.0934 0 0
2:55 am 02:55 Clear 67 19.3 62 16.6 84 84 SSE 7 11 30.06 1018 10 16.0934 0 0
3:15 am 03:15 Clear 67 19.3 62 16.5 84 84 SSE 6 9 30.06 1018 10 16.0934 0 0
3:35 am 03:35 Clear 67 19.3 62 16.7 85 85 S 5 7 30.06 1018 10 16.0934 0 0
3:55 am 03:55 Clear 67 19.6 62 16.9 85 85 S 6 9 30.06 1018 10 16.0934 0 0
4:15 am 04:15 Clear 68 19.8 63 17.1 85 85 S 5 7 30.06 1018 10 16.0934 0 0
4:35 am 04:35 Clear 68 19.8 63 17.2 85 85 S 7 11 30.06 1018 10 16.0934 0 0
4:55 am 04:55 Clear 67 19.7 63 17.2 86 86 SSE 6 9 30.06 1018 10 16.0934 0 0
5:15 am 05:15 Clear 67 19.5 63 17.2 87 87 SSE 6 9 30.06 1018 10 16.0934 0 0
5:35 am 05:35 Clear 67 19.5 63 17.2 87 87 SSE 5 7 30.06 1018 10 16.0934 0 0
5:55 am 05:55 Clear 66 19 63 17.2 89 89 SSE 5 7 30.06 1018 10 16.0934 0 0
6:15 am 06:15 Clear 67 19.2 63 17.2 88 88 Calm 30.06 1018 10 16.0934 0 0
6:35 am 06:35 Clear 66 19.1 63 17.2 89 89 S 3 6 30.06 1018 10 16.0934 0 0
6:55 am 06:55 Sunny 66 19 63 17.2 89 89 S 6 9 30.06 1018 10 16.0934 0 0
7:15 am 07:15 Sunny 66 19.1 63 17.3 89 89 S 3 6 30.06 1018 10 16.0934 0 0
7:35 am 07:35 Sunny 67 19.3 64 17.5 89 89 S 5 7 30.06 1018 10 16.0934 0 0
7:55 am 07:55 Sunny 68 19.8 64 17.7 88 88 S 6 9 30.06 1018 10 16.0934 0 0
8:15 am 08:15 Sunny 69 20.6 64 18 85 85 S 6 9 30.03 1017 10 16.0934 0 0
8:35 am 08:35 Sunny 71 21.8 65 18.2 80 80 S 7 11 30.03 1017 10 16.0934 0 0
8:55 am 08:55 Sunny 73 22.6 65 18.3 77 77 S 9 15 30.03 1017 10 16.0934 0 0
9:15 am 09:15 Sunny 74 23.6 65 18.4 73 73 S 10 17 30.03 1017 10 16.0934 0 0
9:35 am 09:35 Sunny 76 24.5 65 18.6 70 70 S 9 15 30 1016 10 16.0934 0 0
9:55 am 09:55 Sunny 78 25.4 66 18.7 67 67 S 14 22 30 1016 10 16.0934 0 0
10:15 am 10:15 Sunny 78 25.8 66 18.7 65 65 S 13 20 30 1016 10 16.0934 0 0
10:35 am 10:35 Sunny 79 26.3 66 19 64 64 S 14 22 30 1016 10 16.0934 0 0
10:55 am 10:55 Sunny 80 26.8 66 19.1 63 63 S 12 19 30 1016 10 16.0934 0 0
11:15 am 11:15 Sunny 80 26.9 67 19.2 63 63 S 13 20 30 1016 10 16.0934 0 0
11:35 am 11:35 Sunny 81 27.2 67 19.4 62 62 S 14 22 30 1016 10 16.0934 0 0
11:55 am 11:55 Sunny 82 27.8 67 19.5 61 61 S 14 22 30 1016 10 16.0934 0 0
12:15 pm 12:15 Sunny 83 28.2 67 19.5 59 59 S 13 20 30 1016 10 16.0934 0 0
12:35 pm 12:35 Sunny 83 28.5 67 19.7 59 59 S 16 26 29.94 1014 10 16.0934 0 0
12:55 pm 12:55 Sunny 83 28.6 67 19.3 57 57 S 14 22 29.94 1014 10 16.0934 0 0
1:15 pm 13:15 Sunny 85 29.7 67 19.3 54 54 S 16 26 29.94 1014 10 16.0934 0 0
1:35 pm 13:35 Sunny 85 29.5 66 18.8 53 53 S 17 28 29.91 1013 10 16.0934 0 0
1:55 pm 13:55 Sunny 87 30.5 66 19.1 51 51 S 16 26 29.91 1013 10 16.0934 0 0
2:15 pm 14:15 Sunny 87 30.8 66 18.7 48 48 S 17 28 29.91 1013 10 16.0934 0 0
2:35 pm 14:35 Sunny 88 31.3 66 18.8 47 47 S 15 24 29.91 1013 10 16.0934 0 0
2:55 pm 14:55 Sunny 89 31.5 65 18.5 46 46 S 16 26 29.85 1011 10 16.0934 0 0
3:15 pm 15:15 Sunny 89 31.7 66 18.9 47 47 S 15 24 29.85 1011 10 16.0934 0 0
3:35 pm 15:35 Sunny 89 31.9 65 18.5 45 45 S 16 26 29.85 1011 10 16.0934 0 0
3:55 pm 15:55 Sunny 90 32.3 65 18.6 44 44 S 15 24 29.85 1011 10 16.0934 0 0
4:15 pm 16:15 Sunny 90 32.1 65 18.3 44 44 S 13 20 29.85 1011 10 16.0934 0 0
4:35 pm 16:35 Sunny 90 32.2 64 18 43 43 S 14 22 29.85 1011 10 16.0934 0 0
4:55 pm 16:55 Sunny 91 32.5 65 18.1 42 42 S 14 22 29.83 1010 10 16.0934 0 0
5:15 pm 17:15 Sunny 90 32.3 64 17.9 42 42 S 15 24 29.83 1010 10 16.0934 0 0
5:35 pm 17:35 Sunny 90 32.1 64 17.7 42 42 S 15 24 29.83 1010 10 16.0934 0 0
5:55 pm 17:55 Sunny 89 31.9 64 17.9 43 43 S 15 24 29.83 1010 10 16.0934 0 0
6:15 pm 18:15 Sunny 89 31.6 64 17.9 44 44 S 13 20 29.83 1010 10 16.0934 0 0
6:35 pm 18:35 Sunny 89 31.5 64 17.8 44 44 SSE 12 19 29.83 1010 10 16.0934 0 0
6:55 pm 18:55 Sunny 87 30.8 65 18.1 47 47 SSE 10 17 29.83 1010 10 16.0934 0 0
7:15 pm 19:15 Sunny 87 30.5 64 18 47 47 SSE 10 17 29.8 1009 10 16.0934 0 0
7:35 pm 19:35 Sunny 85 29.7 65 18.1 50 50 SSE 9 15 29.83 1010 10 16.0934 0 0
7:55 pm 19:55 Sunny 83 28.5 66 18.9 56 56 SSE 9 15 29.83 1010 10 16.0934 0 0
8:15 pm 20:15 Sunny 81 27.1 67 19.3 62 62 SSE 8 13 29.83 1010 10 16.0934 0 0
8:35 pm 20:35 Sunny 79 26.1 66 18.9 65 65 SSE 9 15 29.85 1011 10 16.0934 0 0
8:55 pm 20:55 Clear 78 25.5 65 18.5 65 65 SSE 9 15 29.88 1012 10 16.0934 0 0
9:15 pm 21:15 Clear 77 25 64 18 65 65 SSE 9 15 29.85 1011 10 16.0934 0 0
9:35 pm 21:35 Clear 76 24.6 64 17.7 66 66 SSE 9 15 29.88 1012 10 16.0934 0 0
9:55 pm 21:55 Clear 75 24 64 17.7 68 68 SSE 8 13 29.88 1012 10 16.0934 0 0
10:15 pm 22:15 Clear 75 23.9 64 17.5 68 68 SSE 10 17 29.88 1012 10 16.0934 0 0
10:35 pm 22:35 Clear 75 24 63 17 65 65 SSE 10 17 29.88 1012 10 16.0934 0 0
10:55 pm 22:55 Clear 75 23.7 62 16.6 65 65 SSE 9 15 29.91 1013 10 16.0934 0 0
11:15 pm 23:15 Clear 74 23.5 62 16.4 65 65 SSE 10 17 29.91 1013 10 16.0934 0 0
11:35 pm 23:35 Clear 73 23 61 16.1 65 65 SSE 9 15 29.94 1014 10 16.0934 0 0
11:55 pm 23:55 Clear 73 22.6 61 16.1 67 67 SSE 10 17 29.94 1014 10 16.0934 0 0

Powered by AerisWeather